sat.trackr.live / text

‹ back to catalog

STARLINK-36526

NORAD 67508 · 2026-012R

PAYLOAD ACTIVE UNKNOWN

§ Identity

Operator
Country
US
Launch date
2026-01-18
Launch site
AFETR
Launch vehicle
Mass (kg)
RCS (m²)

Purposes: comms

External: N2YO · Heavens-Above · Gunter

§ Orbital elements

Epoch: 2026-05-24T23:22:11.809056Z

Period
94.27 min
Inclination
43.0021°
Eccentricity
0.0002290
Mean motion
15.27591148 rev/d
Perigee alt
481.4 km
Apogee alt
484.6 km
Semi-major
6,861.2 km
B*
7.9735e-4
RAAN
243.1383°
Arg perigee
267.0449°
Mean anomaly
93.0141°
Rev number
1,943

§ Raw data

STARLINK-365261 67508U 26012R   26144.97374779  .00021752  00000+0  79735-3 0  99972 67508  43.0021 243.1383 0002290 267.0449  93.0141 15.27591148 19435

JSON: /api/v1/satellites/67508 · /tle

For live sub-satellite position, see the globe view (requires WebGL).

§ Visibility from observer

Set your observer location to see the next 7 days of passes ≥ 10°. The values pass through the URL so the page stays shareable.

No JS? Fill the form by hand. The geolocation button needs JavaScript.